Regional Weather Roundup
Issued by NWS

Home | Current Version | Previous Version | Graphics & Text | Print | Product List | Glossary On
Versions: 1 2 3 4 5 6 7 8 9 10 11 12 13 14 15 16 17 18 19 20 21 22 23 24 25 26 27 28 29 30 31 32 33 34 35 36 37 38 39 40 41 42 43 44 45 46 47 48 49 50
000
ASUS45 KCYS 040110
RWRWY

WYOMING REGIONAL WEATHER ROUNDUP
NATIONAL WEATHER SERVICE CHEYENNE WY
700 PM MDT THU SEP 03 2015

NOTE:  "FAIR" INDICATES FEW OR NO CLOUDS BELOW 12,000 FEET
WITH NO SIGNIFICANT WEATHER AND/OR OBSTRUCTIONS TO VISIBILITY.

WYZ001-040200-
YELLOWSTONE NATIONAL PARK

CITY           SKY/WX    TMP DP  RH WIND       PRES   REMARKS
LK YELLOWSTONE   N/A     65  35  33 VRB6      30.04R
W YELLOWSTONE  NOT AVBL

$$
WYZ002>013-054>058-071-098>099-040200-
NORTHERN WYOMING

CITY           SKY/WX    TMP DP  RH WIND       PRES   REMARKS
JACKSON        FAIR      72  34  25 SW9       29.91S
CODY           MOCLDY    70  43  37 NE6G16    29.85R
GREYBULL       FAIR      80  39  23 NW23      29.72R
WORLAND        FAIR      86  30  13 S12       29.73S
SHERIDAN       FAIR      75  42  30 NW21      29.78R
BUFFALO        FAIR      78  42  27 N16G23    29.82R
GILLETTE       FAIR      84  40  21 S10       29.77R
HULETT         FAIR      79  46  31 SE8       29.80S
NEWCASTLE      FAIR      84  36  17 E7        29.80S

$$
WYZ014>020-022>026-101>103-040200-
CENTRAL WYOMING

CITY           SKY/WX    TMP DP  RH WIND       PRES   REMARKS
BIG PINEY      FAIR      72  34  24 SW10      29.98S
PINEDALE       FAIR      73  28  19 SW13G20   29.98S
DUBOIS         FAIR      70  32  24 CALM      29.95S
LANDER         FAIR      80  30  16 S14G26    29.83F
RIVERTON       FAIR      82  29  14 S14       29.84F
CASPER         FAIR      80  34  19 SW18G26   29.88R
DOUGLAS        CLOUDY    77  43  29 VRB6G18   29.97R

$$
WYZ021-027>030-104>119-040200-
SOUTHERN WYOMING

CITY           SKY/WX    TMP DP  RH WIND       PRES   REMARKS
EVANSTON       FAIR      74  25  16 SW22      29.98F
KEMMERER       FAIR     N/A N/A N/A SW18G25   29.99F
FORT BRIDGER   CLEAR     77  30  18 SW9       30.00S
ROCK SPRINGS   FAIR      74  30  19 S16       29.97F
DIXON          FAIR      67  45  44 E10       30.07S
RAWLINS        FAIR      64  45  49 SE20G26   30.05R
SARATOGA       FAIR      61  46  59 SE20G26   30.11S
LARAMIE        LGT RAIN  55  32  41 W7        30.19R
CHEYENNE       CLOUDY    66  48  52 NW15G22   30.05R
TORRINGTON     FAIR      77  49  37 W9        29.88R
PINE BLUFFS    MOCLDY    73  43  33 W7        29.98R

$$



USA.gov is the U.S. government's official web portal to all federal, state and local government web resources and services.